Wind_Speed
17 18 18 19 19 19 20 20 20 20 20 21 22 23 23 24 25 25 26 26 27 28 28 28 28 29 30 30 30 30 30 30 31 31 31 31 31 32
17 18 18 18 19 20 20 20 20 20 19 20 22 23 23 24 24 25 26 26 27 27 28 28 28 28 29 30 30 30 30 30 31 31 32 31 31 31
17 17 17 18 18 19 19 19 19 19 19 20 21 22 23 23 24 25 25 26 27 27 27 27 27 28 28 29 30 30 30 30 31 31 32 33 32 32
16 16 17 18 19 19 18 18 18 19 19 20 21 22 23 24 25 25 26 26 26 26 27 27 27 28 28 29 30 30 31 31 32 32 33 33 33 33
16 16 18 19 19 19 19 18 19 19 20 21 22 23 24 24 25 25 26 26 26 26 27 28 28 29 29 29 30 31 32 32 32 32 33 34 34 34
17 17 18 19 19 19 19 19 20 20 21 21 22 22 23 24 24 25 26 27 27 28 28 29 29 30 30 30 30 31 31 33 33 32 32 33 34 34
18 19 19 19 19 19 20 20 21 21 22 22 23 23 24 25 26 26 26 27 28 28 29 30 30 31 31 31 31 31 31 32 32 32 32 33 34 35
18 19 19 20 19 20 20 21 21 22 23 23 23 24 24 25 26 26 26 27 27 28 29 29 30 30 30 30 31 31 32 32 32 33 33 33 34 35
18 19 19 20 20 21 20 20 21 21 22 22 23 23 24 25 26 26 26 27 26 27 27 27 27 28 28 28 29 30 31 32 32 33 33 34 35 35
18 19 20 20 21 21 21 21 21 21 22 22 22 24 25 25 26 26 25 25 25 26 26 27 27 27 27 28 28 29 30 31 33 33 34 34 35 36
19 20 21 21 20 20 21 21 21 21 22 23 23 24 24 24 25 25 25 25 25 26 26 27 27 27 28 28 28 29 30 31 32 33 33 34 35 35
20 21 21 21 20 20 21 22 22 22 22 22 23 23 23 23 23 24 25 26 26 26 26 27 27 28 28 29 29 29 30 30 31 32 32 33 34 35
21 21 21 21 20 21 22 22 22 22 22 23 23 23 22 22 22 23 24 25 25 25 26 26 27 27 28 29 29 30 30 30 30 30 30 31 32 33
22 22 21 20 21 22 22 21 21 21 21 22 22 23 23 23 23 23 23 23 23 24 25 26 25 26 26 27 28 28 29 29 29 29 30 30 31 33
22 21 20 20 21 21 21 20 20 20 20 21 22 22 22 22 22 23 23 23 22 22 23 23 24 25 25 26 26 26 27 27 28 28 29 30 31 32
21 21 21 20 20 20 20 20 20 20 21 21 21 21 21 22 22 22 23 23 23 23 23 23 24 25 25 26 26 26 27 27 28 28 29 30 30 31
21 20 20 20 19 19 19 19 20 20 20 20 21 21 21 22 22 22 23 24 24 24 24 24 25 25 26 26 27 28 28 29 29 29 29 30 30 30
22 21 20 20 19 19 19 18 18 19 19 20 20 20 20 20 21 22 23 23 22 23 24 25 26 26 26 26 27 27 28 28 29 29 29 29 29 29
21 20 20 19 18 18 19 19 19 19 19 19 19 19 20 20 21 22 22 22 22 22 23 24 25 26 26 25 25 26 27 27 28 28 28 28 28 28
19 18 18 18 18 18 19 19 19 19 19 19 19 19 20 20 21 21 21 21 22 22 21 22 22 23 23 24 24 24 25 26 27 28 28 28 28 29
19 18 18 18 18 19 19 19 19 19 19 19 20 20 20 20 20 20 20 20 20 19 19 19 20 21 21 22 22 23 25 26 27 28 28 28 29 29
19 19 19 18 18 18 18 19 19 19 20 20 20 20 20 20 20 20 20 20 19 19 19 20 21 22 22 22 23 24 25 25 25 26 26 27 28 28
19 19 19 19 19 18 18 19 19 20 20 20 20 20 21 20 20 20 20 19 19 19 20 20 21 22 22 23 23 24 24 25 24 24 25 25 25 25
Wind_Direction
271 271 272 272 273 271 271 271 271 268 266 265 265 263 262 261 262 261 261 260 261 262 262 263 262 262 261 260 260 260 260 255 252 252 253 254 253 253
272 273 274 275 275 274 273 272 272 270 269 268 267 266 265 265 264 263 263 262 263 263 262 263 264 263 262 261 260 260 260 256 253 252 252 253 253 252
274 273 275 277 278 277 275 274 272 272 271 270 270 268 268 267 265 264 263 263 263 262 261 261 262 262 262 261 260 259 259 257 253 253 253 253 254 253
274 275 276 277 280 281 278 274 274 274 272 272 270 269 268 269 267 265 263 263 263 262 261 261 262 262 262 260 260 260 259 258 255 254 254 255 255 254
276 277 279 281 282 282 280 277 275 273 273 273 273 272 271 270 268 266 263 264 265 264 263 262 262 263 263 262 262 261 260 259 256 256 254 255 254 254
277 279 281 282 283 281 281 278 276 273 273 274 274 273 272 271 270 268 266 266 267 267 264 264 264 263 263 263 261 261 262 261 258 257 256 256 253 253
280 281 282 282 282 282 282 280 277 276 275 274 275 275 274 273 272 270 269 269 268 266 264 263 263 263 262 263 262 262 261 261 259 258 258 256 254 253
280 281 282 281 281 283 284 283 281 279 277 275 277 276 275 275 273 272 271 271 269 266 267 266 266 265 264 264 263 262 262 260 260 260 259 258 255 255
283 284 285 284 284 286 286 285 283 281 280 278 277 279 277 276 274 273 273 272 271 268 267 268 267 265 264 264 264 263 263 262 261 261 261 260 256 255
284 286 285 285 285 286 286 285 284 282 280 280 280 281 279 277 275 274 274 273 272 270 269 268 267 265 266 267 265 264 265 265 264 264 263 261 258 258
285 286 288 288 287 286 285 284 284 283 280 281 282 284 283 280 277 275 275 276 275 272 270 270 269 268 268 267 267 266 266 266 266 265 265 263 261 258
286 288 291 291 289 287 287 285 284 283 282 282 282 283 283 281 278 276 276 276 275 273 271 269 269 268 267 267 268 267 267 267 267 266 266 265 264 262
288 290 292 291 292 291 288 286 284 284 283 283 284 284 284 282 280 279 278 276 275 274 272 270 269 268 268 268 269 268 268 269 269 267 267 266 265 264
289 290 292 292 292 292 291 288 287 286 286 287 286 286 285 283 282 282 280 279 278 276 273 272 271 269 269 269 269 269 270 271 271 270 268 268 267 266
288 290 292 293 294 292 290 288 286 286 288 290 290 289 287 283 282 282 281 281 280 279 277 274 273 272 271 272 273 272 272 272 272 270 271 271 270 268
287 289 291 291 292 290 289 288 286 286 289 290 291 290 288 285 282 281 281 281 281 279 276 275 274 273 272 273 273 274 275 275 274 273 272 273 272 269
286 287 289 290 290 291 291 288 286 287 289 289 291 291 289 286 284 283 283 285 281 279 276 275 275 275 276 276 276 274 274 275 275 275 276 276 274 270
286 287 290 290 290 292 293 292 290 290 291 291 294 295 293 289 285 283 284 283 282 281 279 278 277 276 275 275 277 277 277 278 278 278 279 277 273 271
287 287 288 289 289 290 291 291 291 292 293 294 296 296 296 292 288 286 286 286 285 284 283 282 281 279 280 279 280 280 281 279 278 279 279 277 274 272
289 287 286 288 287 287 289 291 293 292 293 296 297 297 296 297 294 291 290 288 287 286 285 284 283 283 283 283 282 282 282 282 281 281 280 278 276 274
287 286 286 286 284 286 288 290 291 292 293 295 297 298 298 299 298 295 295 293 291 289 288 286 285 285 287 287 287 288 287 286 284 282 280 278 276 274
286 285 285 284 283 284 286 289 291 292 293 294 295 296 297 298 299 297 296 295 294 291 288 288 288 290 290 291 291 291 291 291 288 286 283 281 279 276
285 285 285 284 283 284 286 287 289 293 294 294 296 296 298 298 300 301 299 296 293 292 292 293 293 293 293 293 293 292 293 293 291 289 287 284 282 280
Height
5779 5778 5778 5777 5777 5777 5777 5777 5777 5777 5777 5778 5778 5778 5778 5779 5779 5780 5781 5782 5783 5783 5784 5784 5785 5786 5786 5787 5788 5789 5789 5791 5792 5794 5795 5797 5798 5800
5774 5773 5773 5772 5772 5771 5771 5771 5771 5771 5771 5771 5771 5771 5772 5772 5772 5773 5773 5774 5775 5775 5776 5776 5777 5778 5778 5779 5780 5780 5781 5782 5783 5785 5787 5788 5789 5791
5769 5769 5768 5767 5767 5766 5766 5765 5765 5765 5765 5765 5765 5765 5765 5765 5765 5766 5766 5766 5767 5767 5768 5768 5769 5769 5770 5771 5771 5772 5773 5773 5775 5776 5778 5779 5780 5782
5765 5764 5764 5763 5762 5761 5760 5760 5760 5759 5759 5759 5759 5758 5758 5758 5758 5758 5758 5758 5759 5759 5760 5761 5761 5762 5762 5763 5763 5764 5764 5765 5766 5767 5769 5770 5771 5772
5760 5759 5759 5758 5757 5756 5755 5755 5754 5753 5753 5753 5753 5752 5752 5751 5751 5751 5750 5751 5751 5751 5752 5752 5753 5753 5754 5754 5755 5755 5756 5756 5757 5758 5760 5761 5762 5763
5755 5755 5754 5753 5752 5751 5750 5749 5748 5747 5747 5746 5746 5745 5745 5744 5743 5743 5743 5743 5743 5743 5743 5744 5744 5744 5745 5745 5746 5746 5746 5747 5748 5749 5750 5751 5752 5754
5751 5750 5749 5748 5747 5745 5744 5743 5742 5741 5740 5739 5739 5738 5738 5737 5736 5735 5735 5735 5735 5735 5735 5735 5735 5735 5735 5736 5736 5736 5737 5737 5738 5739 5740 5741 5742 5744
5746 5744 5743 5742 5741 5740 5738 5737 5736 5735 5734 5733 5732 5731 5731 5730 5729 5728 5727 5727 5726 5727 5726 5726 5726 5726 5726 5726 5727 5727 5727 5728 5729 5729 5730 5731 5732 5734
5740 5739 5738 5737 5735 5734 5733 5731 5730 5728 5727 5726 5725 5724 5723 5722 5721 5720 5719 5719 5718 5717 5717 5717 5717 5716 5716 5717 5717 5717 5718 5718 5719 5720 5720 5721 5722 5723
5735 5734 5732 5731 5729 5728 5727 5725 5724 5722 5721 5720 5718 5717 5715 5714 5713 5712 5711 5711 5710 5709 5708 5708 5708 5708 5708 5708 5708 5708 5708 5708 5709 5709 5710 5711 5712 5713
5730 5728 5726 5725 5724 5722 5721 5719 5717 5715 5714 5712 5711 5709 5707 5706 5704 5704 5703 5703 5702 5701 5700 5700 5700 5699 5699 5699 5699 5699 5699 5699 5699 5699 5700 5700 5701 5702
5724 5722 5721 5719 5717 5716 5714 5712 5710 5709 5707 5705 5703 5702 5700 5698 5697 5696 5696 5695 5694 5693 5692 5691 5691 5691 5691 5691 5690 5689 5689 5689 5689 5689 5690 5690 5690 5691
5718 5716 5715 5713 5711 5709 5707 5706 5704 5702 5700 5698 5696 5694 5692 5691 5690 5689 5688 5687 5685 5685 5684 5683 5683 5682 5682 5682 5681 5680 5680 5680 5679 5679 5680 5680 5680 5680
5712 5710 5708 5706 5705 5703 5701 5699 5697 5695 5693 5691 5689 5687 5685 5684 5682 5681 5680 5678 5677 5676 5675 5674 5674 5673 5673 5673 5672 5672 5671 5670 5670 5670 5670 5670 5670 5670
5705 5704 5702 5700 5698 5696 5694 5692 5690 5688 5687 5684 5682 5680 5678 5677 5675 5674 5673 5671 5669 5668 5667 5666 5666 5665 5664 5664 5663 5663 5662 5661 5661 5660 5660 5660 5659 5659
5699 5697 5695 5693 5692 5689 5687 5685 5683 5682 5680 5678 5676 5674 5671 5670 5668 5667 5666 5664 5663 5661 5659 5658 5658 5657 5656 5655 5655 5654 5653 5653 5652 5651 5650 5649 5649 5648
5692 5691 5689 5687 5685 5683 5681 5679 5677 5675 5673 5671 5669 5667 5665 5663 5661 5660 5658 5657 5655 5654 5653 5651 5650 5649 5648 5647 5646 5645 5644 5643 5642 5641 5640 5639 5638 5637
5686 5685 5683 5681 5679 5677 5675 5673 5671 5669 5667 5665 5663 5661 5658 5656 5655 5653 5651 5649 5648 5646 5645 5643 5642 5641 5640 5639 5638 5636 5635 5633 5632 5631 5630 5628 5628 5627
5679 5678 5677 5675 5674 5672 5670 5668 5666 5663 5661 5659 5657 5654 5652 5650 5648 5646 5643 5642 5640 5638 5637 5635 5633 5632 5631 5630 5629 5627 5625 5624 5622 5621 5619 5618 5618 5617
5673 5672 5670 5669 5668 5666 5664 5662 5660 5658 5656 5654 5651 5649 5646 5644 5641 5639 5636 5634 5632 5630 5629 5627 5626 5624 5622 5621 5619 5618 5616 5614 5613 5611 5610 5609 5608 5607
5667 5666 5665 5663 5662 5660 5659 5657 5655 5652 5650 5648 5646 5643 5641 5638 5635 5633 5630 5628 5625 5624 5622 5620 5619 5617 5615 5613 5612 5610 5608 5605 5603 5601 5599 5598 5597 5596
5661 5660 5659 5657 5656 5654 5653 5651 5649 5647 5644 5642 5640 5637 5635 5632 5630 5627 5624 5622 5619 5618 5616 5614 5612 5610 5608 5606 5604 5601 5599 5596 5593 5591 5589 5588 5587 5586
5655 5654 5652 5651 5649 5648 5646 5645 5643 5641 5638 5636 5634 5632 5629 5627 5624 5621 5618 5616 5614 5612 5610 5608 5606 5603 5601 5598 5596 5593 5591 5588 5585 5584 5582 5580 5578 5577